McCarran International Airport Las Vegas US
ICAO: KLAS
IATA: LAS
Category: Large
Scheduled Services: Yes

Elevation: 2181 ft
TransAlt. 18000 ft.

Airport Communications:
LAS VEGAS APP:125.025
ATIS:132.4
CLNC DEL:118
LAS VEGAS DEP:125.02
GND:121.1
:119.9
UNICOM:122.95

KLAS Zoom In..

If Map Doesn't Load, Click Here

Runways:

(A) RW 01L length 8988 ft width 150 ft
ILS 110.10 / hdg 10

(B) RW 01R length 9771 ft width 150 ft
---- / hdg 10

(C) RW 07L length 14512 ft width 150 ft
---- / hdg 75

(D) RW 07R length 10525 ft width 150 ft
---- / hdg 75

(E) RW 19L length 9771 ft width 150 ft
---- / hdg 190

(F) RW 19R length 8988 ft width 150 ft
---- / hdg 190

(G) RW 25L length 10525 ft width 150 ft
ILS 111.75 / hdg 255

(H) RW 25R length 14512 ft width 150 ft
ILS 110.30 / hdg 255

Location; KLAS
Day. 23 / Time. 21.56 Zulu
* Altimeter: 29.78
* Temperature: 36° c. 96.8°f.
* Wind from: 240° Speed 10 kn with Gusts up to 19 kn.
Dewpoint: 05° c.
Visibility: 10 Statute Miles.
Clouds: Scattered 11000 ft.

KLAS 232156Z 24010G19KT 10SM SCT110 36/05 A2978 RMK AO2 SLP052 T03560050


Wind From 240°
Speed 10 kn.

 
 
jpsmedia.com for Web Design worldairports.se 2018   terms of use